Hourly Data

Hourly Data Report for March 02, 2012

All times are specified in Local Standard Time (LST). Add 1 hour to adjust for Daylight Saving Time where and when it is observed.

Metadata including Station Name, Province, Latitude, Longitude, Elevation, Climate ID, WMO ID, TC ID
ST-JOVITE
QUEBEC
Latitude: 46°04'49.000" N Longitude: 74°33'21.000" W Elevation: 238.50 m
Climate ID: 703GDKB WMO ID: 71376 TC ID: WJT
Hourly Data Report for March 2, 2012
Temp Definition
°C

Dew Point Temp Definition
°C

Rel Hum Definition
%

Wind Dir Definition
10's deg
Wind Spd Definition
km/h

Visibility Definition
km

Stn Press Definition
kPa

Hmdx Definition

Wind Chill Definition

Weather Definition

TIME
00:00 -7.4 -9.6 84 6 7 98.50 -11 LegendNANA
01:00 -7.5 -9.5 86 8 7 98.54 -11 LegendNANA
02:00 -7.6 -9.4 87 8 7 98.59 -11 LegendNANA
03:00 -7.7 -9.5 87 7 6 98.63 -11 LegendNANA
04:00 -7.4 -9.3 86 6 6 98.60 -11 LegendNANA
05:00 -7.2 -9.6 83 7 6 98.59 -10 LegendNANA
06:00 -7.2 -9.5 84 6 6 98.55 -10 LegendNANA
07:00 -7.1 -9.4 84 7 4 98.60 -9 LegendNANA
08:00 -6.7 -9.0 84 9 4 98.63 -9 LegendNANA
09:00 -6.1 -8.4 84 9 4 98.63 -8 LegendNANA
10:00 -5.4 -8.0 82 11 4 98.64 -7 LegendNANA
11:00 -4.4 -7.7 78 11 2 98.60 -5 LegendNANA
12:00 -3.6 -6.6 80 12 4 98.60 -5 LegendNANA
13:00 -2.8 -5.1 84 9 4 98.50 -4 LegendNANA
14:00 -2.5 -4.4 87 9 4 98.43 -4 LegendNANA
15:00 -2.2 -3.8 89 9 4 98.42 -4 LegendNANA
16:00 -2.4 -3.8 90 10 4 98.35 -4 LegendNANA
17:00 -2.3 -3.4 92 6 4 98.34 -4 LegendNANA
18:00 -2.7 -3.7 93 6 4 98.29 -4 LegendNANA
19:00 -2.7 -4.1 90 7 4 98.25 -4 LegendNANA
20:00 -2.6 -4.2 89 2 4 98.20 -4 LegendNANA
21:00 -2.3 -3.8 89 10 6 98.01 -5 LegendNANA
22:00 -2.0 -3.4 90 12 7 97.94 -5 LegendNANA
23:00 -1.9 -3.4 89 10 6 97.74 -4 LegendNANA

Notes on Data Quality.

Legend
  • M = Missing
  • E = Estimated
  • NA = Not Available
  • ‡ = Partner data that is not subject to review by the National Climate Archives